Location: Middlebury
(44.0153°N, 73.1678°W)
Time: 01:38:15
(UTC-04:00)

UWE-3 - Visible Passes

Search period start: 22 June 2024 00:00
Search period end: 02 July 2024 00:00
Orbit: 568 x 651 km, 97.8° (Epoch: 21 June)

Date Brightness Start Highest point End Pass type
(mag) Time Alt. Az. Time Alt. Az. Time Alt. Az.
22 Jun ? 02:11:43 10° ENE 02:13:22 12° E 02:15:00 10° ESE visible
22 Jun ? 03:45:32 10° N 03:49:44 61° WNW 03:53:00 15° SSW visible
23 Jun ? 02:24:53 10° NE 02:27:40 17° E 02:30:19 10° SE visible
23 Jun ? 03:59:48 10° N 04:03:49 43° WNW 04:07:16 13° SW visible
24 Jun ? 02:38:31 10° NE 02:41:55 24° E 02:44:35 13° SE visible
24 Jun ? 04:14:10 10° N 04:17:52 30° WNW 04:21:29 10° SW visible
25 Jun ? 02:52:20 10° NNE 02:56:09 33° E 02:58:49 16° SSE visible
25 Jun ? 04:28:36 10° NNW 04:31:53 22° WNW 04:35:05 10° WSW visible
26 Jun ? 03:06:16 10° NNE 03:10:20 47° E 03:13:05 18° SSE visible
27 Jun ? 03:20:18 10° NNE 03:24:29 70° ESE 03:27:19 19° S visible
28 Jun ? 03:34:24 10° N 03:38:35 82° WNW 03:41:32 18° SSW visible
29 Jun ? 02:14:29 10° ENE 02:16:20 13° E 02:18:09 10° ESE visible
29 Jun ? 03:48:34 10° N 03:52:39 56° WNW 03:55:46 16° SSW visible
30 Jun ? 02:27:44 10° NE 02:30:35 18° E 02:33:02 11° SE visible
30 Jun ? 04:02:49 10° N 04:06:41 39° WNW 04:09:59 13° SW visible
01 Jul ? 02:41:21 10° NE 02:44:47 25° E 02:47:14 15° SE visible
01 Jul ? 04:17:09 10° N 04:20:41 28° WNW 04:24:10 10° SW visible
